Location: Aix-en-Ergny
(50.5839°N, 1.9996°E)
Time: 12:01:02
(UTC+00:00)

ATLAS 5 CENTAUR R/B - Pass Details

Date: 23 October 2019
Orbit: 288 x 14350 km, 60.8° (Epoch: 16 November)

Event Time Altitude Azimuth Distance (km) Brightness Sun altitude
Exits shadow 03:09:32 31° 350° (N) 1,537 4.1 -31.6°
Maximum altitude 03:11:09 38° 26° (NNE) 1,673 4.5 -31.3°
Drops below altitude 10° 03:23:50 10° 91° (E) 6,360 8.0 -29.4°
Sets 03:33:41 0° 99° (E) 9,746 9.1 -28.0°
